• In Czech Republic
  • List of Countries
  • For 7 days
  • Water Temperature
  • Satellite Maps
  • Weather Map
  • Weather Widgets
  • user-avatar
    Login

    Hourly Weather Pyshne

    Today, 22 September, Saturday

    Time Temperature Precipitation Wind Pressure Humidity
    00:00 +21°C° 0 mm 1 mps 750 mmHg 63%
    01:00 +20°C° 0 mm 2 mps 750 mmHg 64%
    02:00 +19°C° 0 mm 2 mps 750 mmHg 66%
    03:00 +19°C° 0 mm 2 mps 749 mmHg 67%
    04:00 +19°C° 0 mm 2 mps 749 mmHg 68%
    05:00 +18°C° 0 mm 2 mps 749 mmHg 70%
    06:00 +19°C° 0 mm 2 mps 749 mmHg 67%
    07:00 +21°C° 0 mm 3 mps 749 mmHg 64%
    08:00 +22°C° 0 mm 3 mps 749 mmHg 61%
    09:00 +25°C° 0 mm 3 mps 749 mmHg 54%
    10:00 +26°C° 0 mm 4 mps 749 mmHg 48%
    11:00 +28°C° 0 mm 4 mps 749 mmHg 41%
    12:00 +29°C° 0 mm 4 mps 748 mmHg 39%
    13:00 +29°C° 0 mm 4 mps 748 mmHg 37%
    14:00 +29°C° 0 mm 5 mps 747 mmHg 34%
    15:00 +28°C° 0 mm 4 mps 747 mmHg 38%
    16:00 +27°C° 0 mm 3 mps 746 mmHg 41%
    17:00 +26°C° 0 mm 2 mps 746 mmHg 45%
    18:00 +25°C° 0 mm 2 mps 746 mmHg 46%
    19:00 +24°C° 0 mm 2 mps 746 mmHg 47%
    20:00 +21°C° 0 mm 2 mps 746 mmHg 48%
    21:00 +20°C° 0 mm 3 mps 746 mmHg 52%
    22:00 +20°C° 0 mm 4 mps 746 mmHg 56%
    23:00 +19°C° 0 mm 4 mps 746 mmHg 60%

    Tomorrow, 23 September, Sunday

    Time Temperature Precipitation Wind Pressure Humidity
    00:00 +16°C° 0 mm 5 mps 746 mmHg 65%
    01:00 +15°C° 0 mm 6 mps 746 mmHg 70%
    02:00 +14°C° 0 mm 7 mps 747 mmHg 75%
    03:00 +13°C° 0.9 mm 6 mps 747 mmHg 77%
    04:00 +11°C° 0.9 mm 6 mps 747 mmHg 80%
    05:00 +9°C° 0.9 mm 6 mps 747 mmHg 82%
    06:00 +9°C° 0.5 mm 5 mps 747 mmHg 81%
    07:00 +9°C° 0.5 mm 5 mps 748 mmHg 80%
    08:00 +10°C° 0.5 mm 4 mps 748 mmHg 80%
    09:00 +11°C° 0 mm 4 mps 748 mmHg 75%
    10:00 +13°C° 0 mm 4 mps 748 mmHg 70%
    11:00 +14°C° 0 mm 4 mps 749 mmHg 65%
    12:00 +15°C° 0 mm 4 mps 748 mmHg 61%
    13:00 +17°C° 0 mm 4 mps 748 mmHg 56%
    14:00 +18°C° 0 mm 4 mps 748 mmHg 52%
    15:00 +17°C° 0 mm 4 mps 748 mmHg 53%
    16:00 +17°C° 0 mm 3 mps 748 mmHg 55%
    17:00 +16°C° 0 mm 3 mps 748 mmHg 56%
    18:00 +14°C° 0 mm 3 mps 748 mmHg 59%
    19:00 +14°C° 0 mm 2 mps 748 mmHg 62%
    20:00 +13°C° 0 mm 2 mps 748 mmHg 64%
    21:00 +13°C° 0 mm 2 mps 748 mmHg 66%
    22:00 +12°C° 0 mm 2 mps 748 mmHg 67%
    23:00 +12°C° 0 mm 2 mps 748 mmHg 69%

    Day after tomorrow, 24 September, Monday

    Time Temperature Precipitation Wind Pressure Humidity
    00:00 +12°C° 0 mm 2 mps 748 mmHg 70%
    01:00 +10°C° 0 mm 2 mps 748 mmHg 71%
    02:00 +10°C° 0 mm 2 mps 748 mmHg 73%
    03:00 +10°C° 0 mm 3 mps 747 mmHg 73%
    04:00 +10°C° 0 mm 3 mps 747 mmHg 72%
    05:00 +10°C° 0 mm 4 mps 746 mmHg 72%
    06:00 +10°C° 0 mm 5 mps 745 mmHg 66%
    07:00 +12°C° 0 mm 7 mps 745 mmHg 60%
    08:00 +15°C° 0 mm 9 mps 744 mmHg 53%
    09:00 +15°C° 0.8 mm 9 mps 743 mmHg 56%
    10:00 +15°C° 0.8 mm 9 mps 742 mmHg 58%
    11:00 +16°C° 0.8 mm 8 mps 741 mmHg 60%
    12:00 +16°C° 2.1 mm 9 mps 740 mmHg 66%
    13:00 +16°C° 2.1 mm 9 mps 739 mmHg 72%
    14:00 +16°C° 2.1 mm 10 mps 738 mmHg 77%
    15:00 +14°C° 2 mm 10 mps 738 mmHg 77%
    16:00 +13°C° 2 mm 10 mps 738 mmHg 77%
    17:00 +12°C° 2 mm 11 mps 738 mmHg 77%
    18:00 +11°C° 0.1 mm 10 mps 739 mmHg 76%
    19:00 +10°C° 0.1 mm 9 mps 739 mmHg 75%
    20:00 +9°C° 0.1 mm 8 mps 740 mmHg 74%
    21:00 +9°C° 0 mm 8 mps 741 mmHg 74%
    22:00 +9°C° 0 mm 8 mps 741 mmHg 73%
    23:00 +7°C° 0 mm 8 mps 741 mmHg 73%

    25 September, Tuesday

    Time Temperature Precipitation Wind Pressure Humidity
    00:00 +7°C° 0 mm 8 mps 741 mmHg 72%
    01:00 +7°C° 0 mm 8 mps 742 mmHg 71%
    02:00 +7°C° 0 mm 8 mps 742 mmHg 70%
    03:00 +6°C° 0 mm 8 mps 742 mmHg 71%
    04:00 +6°C° 0 mm 8 mps 742 mmHg 73%
    05:00 +6°C° 0 mm 8 mps 742 mmHg 74%
    06:00 +6°C° 0 mm 8 mps 743 mmHg 73%
    07:00 +7°C° 0 mm 9 mps 743 mmHg 72%
    08:00 +8°C° 0 mm 9 mps 744 mmHg 71%
    09:00 +8°C° 0 mm 9 mps 744 mmHg 67%
    10:00 +8°C° 0 mm 10 mps 745 mmHg 62%
    11:00 +9°C° 0 mm 10 mps 746 mmHg 58%
    12:00 +8°C° 0 mm 10 mps 746 mmHg 59%
    13:00 +8°C° 0 mm 9 mps 747 mmHg 59%
    14:00 +8°C° 0 mm 9 mps 747 mmHg 60%
    15:00 +9°C° 0 mm 8 mps 748 mmHg 59%
    16:00 +9°C° 0 mm 6 mps 748 mmHg 58%
    17:00 +9°C° 0 mm 5 mps 748 mmHg 57%
    18:00 +8°C° 0 mm 5 mps 749 mmHg 60%
    19:00 +7°C° 0 mm 5 mps 749 mmHg 62%
    20:00 +6°C° 0 mm 4 mps 750 mmHg 64%
    21:00 +6°C° 0 mm 4 mps 750 mmHg 65%
    22:00 +6°C° 0 mm 5 mps 750 mmHg 66%
    23:00 +5°C° 0 mm 5 mps 751 mmHg 67%

    26 September, Wednesday

    Time Temperature Precipitation Wind Pressure Humidity
    00:00 +5°C° 0 mm 4 mps 751 mmHg 68%
    01:00 +5°C° 0 mm 4 mps 751 mmHg 70%
    02:00 +4°C° 0 mm 4 mps 751 mmHg 71%
    03:00 +4°C° 0 mm 4 mps 751 mmHg 73%
    04:00 +4°C° 0 mm 4 mps 751 mmHg 74%
    05:00 +3°C° 0 mm 3 mps 752 mmHg 76%
    06:00 +5°C° 0 mm 4 mps 752 mmHg 72%
    07:00 +6°C° 0 mm 4 mps 752 mmHg 67%
    08:00 +7°C° 0 mm 5 mps 752 mmHg 63%
    09:00 +8°C° 0 mm 5 mps 752 mmHg 57%
    10:00 +10°C° 0 mm 6 mps 752 mmHg 50%
    11:00 +11°C° 0 mm 6 mps 752 mmHg 44%
    12:00 +13°C° 0 mm 6 mps 752 mmHg 44%
    13:00 +13°C° 0 mm 6 mps 752 mmHg 44%
    14:00 +13°C° 0 mm 6 mps 752 mmHg 43%
    15:00 +13°C° 0 mm 5 mps 752 mmHg 49%
    16:00 +12°C° 0 mm 4 mps 753 mmHg 55%
    17:00 +11°C° 0 mm 3 mps 753 mmHg 60%
    18:00 +10°C° 0 mm 3 mps 753 mmHg 65%
    19:00 +9°C° 0 mm 3 mps 754 mmHg 70%
    20:00 +8°C° 0 mm 2 mps 754 mmHg 75%
    21:00 +8°C° 0 mm 2 mps 755 mmHg 77%
    22:00 +8°C° 0 mm 2 mps 755 mmHg 80%
    23:00 +7°C° 0 mm 2 mps 755 mmHg 82%

    27 September, Thursday

    Time Temperature Precipitation Wind Pressure Humidity
    00:00 +7°C° 0 mm 2 mps 756 mmHg 85%
    01:00 +6°C° 0 mm 2 mps 756 mmHg 87%
    02:00 +6°C° 0 mm 2 mps 756 mmHg 90%
    03:00 +7°C° 0 mm 1 mps 756 mmHg 90%
    04:00 +6°C° 0 mm 1 mps 756 mmHg 91%
    05:00 +6°C° 0 mm 1 mps 756 mmHg 92%
    06:00 +7°C° 0 mm 1 mps 756 mmHg 87%
    07:00 +8°C° 0 mm 1 mps 756 mmHg 82%
    08:00 +10°C° 0 mm 1 mps 757 mmHg 77%
    09:00 +10°C° 0 mm 2 mps 756 mmHg 70%
    10:00 +12°C° 0 mm 3 mps 756 mmHg 63%
    11:00 +13°C° 0 mm 3 mps 756 mmHg 56%
    12:00 +14°C° 0 mm 4 mps 756 mmHg 54%
    13:00 +14°C° 0 mm 4 mps 755 mmHg 51%
    14:00 +15°C° 0 mm 4 mps 755 mmHg 49%
    15:00 +14°C° 0 mm 4 mps 754 mmHg 52%
    16:00 +13°C° 0 mm 3 mps 754 mmHg 55%
    17:00 +13°C° 0 mm 3 mps 753 mmHg 58%
    18:00 +12°C° 0 mm 3 mps 753 mmHg 60%
    19:00 +11°C° 0 mm 3 mps 753 mmHg 62%
    20:00 +10°C° 0 mm 3 mps 753 mmHg 64%
    21:00 +9°C° 0 mm 3 mps 753 mmHg 64%
    22:00 +9°C° 0 mm 3 mps 752 mmHg 65%
    23:00 +9°C° 0 mm 3 mps 752 mmHg 65%
    Show more